Location: Владивосток
(43.1151°N, 131.8856°E)
Time: 08:07:08
(UTC+10:00)

SPROUT - Pass Details

Date: 04 July 2022
Orbit: 588 x 598 km, 97.9° (Epoch: 18 August)

Event Time Altitude Azimuth Distance (km) Brightness Sun altitude
Exits shadow 02:44:14 30° 271° (W) 1,060 ? -21.0°
Drops below altitude 10° 02:47:42 10° 326° (NW) 1,924 ? -20.7°
Sets 02:50:05 0° 337° (NNW) 2,832 ? -20.6°
